Terug naar catalogus

STARLINK-35901

ActiefCommunicatieVLEO
NORAD 67043·PAYLOAD·🇺🇸 United States

Gelanceerd Dec 11, 2025 vanaf Cape Canaveral Space Force Station

Loading…

Volgende Passages (komende 24 uur)

TLE

VersSource: CelesTrak SupGP

Epoch: Sep 14, 2026, 21:20 UTC

1 67043C 25294P   26257.88937500  .00050431  00000+0  18266-2 0  2578
2 67043  43.0037  49.6994 0001756 278.1720  73.2447 15.27552486    19

Volg STARLINK-35901 in realtime met AllMySat

Download on the App Store